Weather History for Lago Vista, TX

Change the Weather History Date:

Tuesday, February 26, 2013

  Actual Average (KATT) Record (KATT)
Temperature  
Mean Temperature 50 °F 57 °F  
Max Temperature 62 °F 68 °F 93 °F (1954)
Min Temperature 37 °F 47 °F 25 °F (1960)
Degree Days  
Heating Degree Days 16 9  
Month to date heating degree days 282  
Since 1 July heating degree days 1322  
Cooling Degree Days 0 1  
Month to date cooling degree days 21  
Year to date cooling degree days 30  
Moisture  
Dew Point 28 °F    
Average Humidity 44    
Maximum Humidity 70    
Minimum Humidity 22    
Precipitation  
Precipitation 0.00 in 0.07 in 2.85 in (1903)
Month to date precipitation 1.86  
Year to date precipitation 4.08  
Snow  
Snow 0.00 in - - ()
Month to date snowfall  
Since 1 July snowfall  
Snow Depth -    
Sea Level Pressure  
Sea Level Pressure 29.88 in    
Wind  
Wind Speed 10 mph (West)    
Max Wind Speed 20 mph    
Max Gust Speed 29 mph    
Visibility 10 miles    
Events      
T = Trace of Precipitation, MM = Missing Value Source: NWS Daily Summary

Daily Weather History Graph

Daily Weather History Graph

Search for Another Location

Airport:

Trip Planner

Search our weather history database for the weather conditions in past years. The results will help you decide how hot, cold, wet, or windy it might be!

Date:

Astronomy

Feb. 26, 2013 Rise Set
Actual Time 7:01 AM CST 6:28 PM CST
Civil Twilight 6:36 AM CST 6:52 PM CST
Nautical Twilight 6:08 AM CST 7:20 PM CST
Astronomical Twilight 5:41 AM CST 7:48 PM CST
Moon 7:37 PM CST (2/26) 7:11 AM CST (2/26)
Length of Visible Light 12h 16m
Length of Day
11h 27m
Full, 99% of the Moon is Illuminated
Feb 26
Full
Mar 4
Last Quarter
Mar 11
New
Mar 19
First Quarter
Mar 27
Full

Hourly Weather History & Observations

Time (CST) Temp. Windchill Dew Point Humidity Pressure Visibility Wind Dir Wind Speed Gust Speed Precip Events Conditions
12:15 AM 44.6 °F 36.6 °F 30.2 °F 57% 29.83 in 10.0 mi WNW 19.6 mph 28.8 mph N/A   Clear
12:35 AM 44.6 °F 37.8 °F 30.2 °F 57% 29.83 in 10.0 mi WNW 15.0 mph 25.3 mph N/A   Clear
12:55 AM 42.8 °F 35.8 °F 30.2 °F 61% 29.83 in 10.0 mi WNW 13.8 mph 23.0 mph N/A   Clear
1:15 AM 42.8 °F 34.8 °F 30.2 °F 61% 29.83 in 10.0 mi WNW 17.3 mph 21.9 mph N/A   Clear
1:35 AM 42.8 °F 36.2 °F 30.2 °F 61% 29.84 in 10.0 mi West 12.7 mph 21.9 mph N/A   Clear
1:55 AM 42.8 °F 38.0 °F 30.2 °F 61% 29.85 in 10.0 mi WNW 8.1 mph 25.3 mph N/A   Clear
2:15 AM 42.8 °F 37.5 °F 30.2 °F 61% 29.85 in 10.0 mi WNW 9.2 mph 20.7 mph N/A   Clear
2:35 AM 41.0 °F 34.3 °F 30.2 °F 65% 29.84 in 10.0 mi WNW 11.5 mph 20.7 mph N/A   Clear
2:55 AM 41.0 °F 34.7 °F 30.2 °F 65% 29.84 in 10.0 mi WNW 10.4 mph 18.4 mph N/A   Clear
3:15 AM 41.0 °F 34.7 °F 30.2 °F 65% 29.85 in 10.0 mi WNW 10.4 mph 16.1 mph N/A   Clear
3:35 AM 41.0 °F 34.7 °F 28.4 °F 61% 29.86 in 10.0 mi WNW 10.4 mph 16.1 mph N/A   Clear
3:55 AM 41.0 °F 35.8 °F 28.4 °F 61% 29.86 in 10.0 mi West 8.1 mph - N/A   Clear
4:15 AM 39.2 °F 33.0 °F 28.4 °F 65% 29.86 in 10.0 mi West 9.2 mph - N/A   Clear
4:35 AM 39.2 °F 32.5 °F 28.4 °F 65% 29.86 in 10.0 mi West 10.4 mph - N/A   Clear
4:55 AM 39.2 °F 32.5 °F 28.4 °F 65% 29.86 in 10.0 mi West 10.4 mph - N/A   Clear
5:15 AM 39.2 °F 32.5 °F 28.4 °F 65% 29.87 in 10.0 mi West 10.4 mph - N/A   Clear
5:35 AM 39.2 °F 33.0 °F 28.4 °F 65% 29.87 in 10.0 mi West 9.2 mph 16.1 mph N/A   Clear
5:55 AM 37.4 °F 31.4 °F 28.4 °F 70% 29.87 in 10.0 mi WNW 8.1 mph - N/A   Clear
6:15 AM 37.4 °F 29.8 °F 28.4 °F 70% 29.88 in 10.0 mi West 11.5 mph - N/A   Clear
6:35 AM 37.4 °F 29.8 °F 28.4 °F 70% 29.88 in 10.0 mi West 11.5 mph - N/A   Clear
6:55 AM 37.4 °F 29.3 °F 28.4 °F 70% 29.88 in 10.0 mi West 12.7 mph 17.3 mph N/A   Clear
7:15 AM 37.4 °F 30.3 °F 28.4 °F 70% 29.88 in 10.0 mi West 10.4 mph - N/A   Clear
7:55 AM 39.2 °F 32.5 °F 28.4 °F 65% 29.90 in 10.0 mi WNW 10.4 mph 17.3 mph N/A   Clear
8:15 AM 39.2 °F 31.6 °F 28.4 °F 65% 29.92 in 10.0 mi West 12.7 mph 19.6 mph N/A   Clear
8:35 AM 41.0 °F 33.5 °F 28.4 °F 61% 29.93 in 10.0 mi West 13.8 mph 19.6 mph N/A   Clear
8:55 AM 42.8 °F 38.0 °F 28.4 °F 57% 29.93 in 10.0 mi WNW 8.1 mph 20.7 mph N/A   Clear
9:15 AM 44.6 °F 38.8 °F 28.4 °F 53% 29.93 in 10.0 mi West 11.5 mph 18.4 mph N/A   Clear
9:35 AM 44.6 °F 39.7 °F 28.4 °F 53% 29.95 in 10.0 mi West 9.2 mph - N/A   Clear
9:55 AM 46.4 °F 41.1 °F 28.4 °F 50% 29.95 in 10.0 mi West 11.5 mph 17.3 mph N/A   Clear
10:15 AM 48.2 °F - 28.4 °F 46% 29.95 in 10.0 mi NW 8.1 mph 17.3 mph N/A   Clear
10:35 AM 50.0 °F - 28.4 °F 43% 29.94 in 10.0 mi WNW 11.5 mph 19.6 mph N/A   Clear
10:55 AM 51.8 °F - 28.4 °F 41% 29.95 in 10.0 mi NW 4.6 mph 18.4 mph N/A   Clear
11:15 AM 53.6 °F - 28.4 °F 38% 29.95 in 10.0 mi West 10.4 mph - N/A   Clear
11:35 AM 53.6 °F - 28.4 °F 38% 29.95 in 10.0 mi WNW 11.5 mph 16.1 mph N/A   Clear
11:55 AM 55.4 °F - 26.6 °F 33% 29.93 in 10.0 mi WNW 10.4 mph 17.3 mph N/A   Clear
12:15 PM 57.2 °F - 28.4 °F 33% 29.92 in 10.0 mi NW 10.4 mph - N/A   Clear
12:35 PM 59.0 °F - 26.6 °F 29% 29.91 in 10.0 mi NNW 6.9 mph 18.4 mph N/A   Clear
12:55 PM 59.0 °F - 24.8 °F 27% 29.90 in 10.0 mi West 11.5 mph 18.4 mph N/A   Clear
1:15 PM 60.8 °F - 26.6 °F 27% 29.89 in 10.0 mi Calm Calm - N/A   Clear
1:35 PM 60.8 °F - 24.8 °F 25% 29.88 in 10.0 mi North 5.8 mph 16.1 mph N/A   Clear
1:55 PM 62.6 °F - 26.6 °F 26% 29.88 in 10.0 mi WNW 9.2 mph 16.1 mph N/A   Clear
2:15 PM 60.8 °F - 24.8 °F 25% 29.88 in 10.0 mi West 10.4 mph 17.3 mph N/A   Clear
2:35 PM 62.6 °F - 24.8 °F 24% 29.88 in 10.0 mi West 8.1 mph - N/A   Clear
2:55 PM 62.6 °F - 26.6 °F 26% 29.86 in 10.0 mi WSW 3.5 mph - N/A   Clear
3:15 PM 62.6 °F - 26.6 °F 26% 29.86 in 10.0 mi West 9.2 mph - N/A   Clear
3:35 PM 62.6 °F - 26.6 °F 26% 29.86 in 10.0 mi West 6.9 mph - N/A   Clear
3:55 PM 62.6 °F - 24.8 °F 24% 29.85 in 10.0 mi West 6.9 mph - N/A   Clear
4:15 PM 62.6 °F - 24.8 °F 24% 29.85 in 10.0 mi WNW 3.5 mph - N/A   Clear
4:35 PM 62.6 °F - 23.0 °F 22% 29.85 in 10.0 mi Calm Calm - N/A   Clear
4:55 PM 62.6 °F - 23.0 °F 22% 29.85 in 10.0 mi West 4.6 mph - N/A   Clear
5:15 PM 62.6 °F - 23.0 °F 22% 29.85 in 10.0 mi WNW 3.5 mph - N/A   Clear
5:35 PM 62.6 °F - 24.8 °F 24% 29.85 in 10.0 mi Calm Calm - N/A   Clear
5:55 PM 60.8 °F - 30.2 °F 31% 29.85 in 10.0 mi Calm Calm - N/A   Clear
6:15 PM 57.2 °F - 28.4 °F 33% 29.85 in 10.0 mi Calm Calm - N/A   Clear
6:35 PM 57.2 °F - 30.2 °F 36% 29.85 in 10.0 mi Calm Calm - N/A   Clear
6:55 PM 57.2 °F - 26.6 °F 31% 29.85 in 10.0 mi ESE 3.5 mph - N/A   Clear
7:15 PM 57.2 °F - 26.6 °F 31% 29.85 in 10.0 mi SSE 4.6 mph - N/A   Clear
7:35 PM 55.4 °F - 28.4 °F 36% 29.86 in 10.0 mi SSE 4.6 mph - N/A   Clear
7:55 PM 55.4 °F - 28.4 °F 36% 29.86 in 10.0 mi SSE 4.6 mph - N/A   Clear
8:15 PM 55.4 °F - 28.4 °F 36% 29.86 in 10.0 mi SSE 4.6 mph - N/A   Clear
8:35 PM 55.4 °F - 28.4 °F 36% 29.87 in 10.0 mi SSE 5.8 mph - N/A   Clear
8:55 PM 55.4 °F - 28.4 °F 36% 29.87 in 10.0 mi SSE 4.6 mph - N/A   Clear
9:15 PM 53.6 °F - 28.4 °F 38% 29.88 in 10.0 mi South 5.8 mph - N/A   Clear
9:35 PM 55.4 °F - 24.8 °F 31% 29.89 in 10.0 mi South 5.8 mph - N/A   Clear
9:55 PM 55.4 °F - 26.6 °F 33% 29.89 in 10.0 mi SSW 4.6 mph - N/A   Clear
10:15 PM 53.6 °F - 26.6 °F 35% 29.88 in 10.0 mi South 5.8 mph - N/A   Clear
10:35 PM 53.6 °F - 26.6 °F 35% 29.87 in 10.0 mi South 5.8 mph - N/A   Clear
10:55 PM 51.8 °F - 26.6 °F 38% 29.87 in 10.0 mi SSE 6.9 mph - N/A   Clear
11:15 PM 51.8 °F - 26.6 °F 38% 29.87 in 10.0 mi South 5.8 mph - N/A   Clear
11:35 PM 51.8 °F - 26.6 °F 38% 29.87 in 10.0 mi South 4.6 mph - N/A   Clear
11:55 PM 53.6 °F - 23.0 °F 30% 29.87 in 10.0 mi SSW 4.6 mph - N/A   Clear